Regional Weather Roundup
Issued by NWS

Home | Current Version | Previous Version | Text Only | Print | Product List | Glossary Off
Versions: 1 2 3 4 5 6 7 8 9 10 11 12 13 14 15 16 17 18 19 20 21 22 23 24 25 26 27 28 29 30 31 32 33 34 35 36 37 38 39 40 41 42 43 44 45 46 47 48 49 50

000
ASUS45 KBOU 260607
RWRCO

WEATHER ROUNDUP FOR COLORADO
NATIONAL WEATHER SERVICE DENVER/BOULDER CO
1100 PM MST WED FEB 25 2015

NOTE: "FAIR" INDICATES FEW OR NO CLOUDS BELOW 12000 FEET WITH NO
SIGNIFICANT WEATHER AND/OR OBSTRUCTIONS TO VISIBILITY.

COZ001>005-013-030-031-260700-
...NORTHWEST COLORADO...

CITY           SKY/WX    TMP DP  RH WIND       PRES   REMARKS
CRAIG            N/A     19  12  74 MISG      30.08S
HAYDEN         MOCLDY    19  14  79 SW5       30.05S WCI  13
MEEKER         CLEAR     23  16  74 SE5       30.06F WCI  17
MOUNT WERNER   NOT AVBL
STEAMBOAT SPGS PTCLDY    18  13  80 E7        30.04F WCI   9
WALDEN         CLOUDY    18  12  79 N7        30.02S WCI   8
$$

COZ006>008-011-260700-
...WEST CENTRAL VALLEYS...

CITY           SKY/WX    TMP DP  RH WIND       PRES   REMARKS
GRAND JUNCTION MOCLDY    32  29  88 NW3       30.06S
MONTROSE       LGT SNOW  30  28  92 SW8       30.06F FOG     WCI  22
EAGLE          PTCLDY    27  18  69 CALM      30.06S
RIFLE          PTCLDY    30  17  58 W12       30.06R WCI  20
DELTA          MOCLDY    34  31  88 W7        30.04F WCI  28
NUCLA          MOCLDY    30  28  93 E7        30.07R WCI  23
$$

COZ017>023-064>068-260700-
...SOUTHWEST COLORADO...

CITY           SKY/WX    TMP DP  RH WIND       PRES   REMARKS
DURANGO        PTCLDY    26  24  92 SW8       29.97F WCI  18
CORTEZ         CLEAR     28  25  88 E3        30.01S
PAGOSA SPRINGS MOCLDY    25  24  99 NE3       29.97F
TELLURIDE      MOCLDY    25  23  92 W8        30.01S WCI  16
WOLF CREEK PAS LGT SNOW  12  10  92 CALM      29.98S
$$

COZ009-010-012-014-032>034-037-058>063-260700-
...CENTRAL COLORADO...

CITY           SKY/WX    TMP DP  RH WIND       PRES   REMARKS
ASPEN          MOCLDY    26  18  71 N10G17    29.98S WCI  16
BUENA VISTA    CLOUDY    22  16  76 NE12G20   30.00R WCI  11
COPPER MTN     CLOUDY    12   5  73 W21G26    29.91S WCI  -6
BERTHOUD PASS  LGT SNOW   0  -6  78 MISG      29.90F
COTTONWOOD PAS SNOW      19  16  86 CALM      29.96S VSB 1/2
GUNNISON       MOCLDY    27  18  69 CALM      30.00F
KREMMLING      CLOUDY    21  12  68 N5        30.04F WCI  15
LEADVILLE      CLOUDY    14   7  73 N10       29.93F WCI   1
MONARCH PASS   CLOUDY     9   5  85 MISG      30.01F
SALIDA         CLOUDY    24  21  89 E15G23    30.07S WCI  11
SUNLIGHT       CLOUDY   N/A N/A N/A CALM        N/A
WILKERSON PASS LGT SNOW   9   5  85 NE7       29.95S VSB 1   WCI  -3
$$

COZ069>075-260700-
...SAN LUIS VALLEY/SANGRE DE CRISTO MOUNTAINS...

CITY           SKY/WX    TMP DP  RH WIND       PRES   REMARKS
ALAMOSA        CLOUDY    24  14  65 E16       29.96S WCI  11
LA VETA PASS   LGT SNOW  14  10  85 MISG      29.96F VSB 3/4
SAGUACHE       CLOUDY    28  21  74 NW12      29.95S WCI  18
$$

COZ035-036-038>040-260700-
...NORTHERN COLORADO FRONT RANGE...

CITY           SKY/WX    TMP DP  RH WIND       PRES   REMARKS
DENVER INTL AP LGT SNOW  18  15  88 NE21      30.15R FOG     WCI   1
DMNS CITY PARK   N/A     19  18  96 NE9G22    30.17R WCI   8
AURORA         LGT SNOW  17  15  93 NE20G28   30.15R FOG     WCI   1
FRONT RANGE AP NOT AVBL
ERIE MUNI ARPT LGT SNOW  22  19  91 N13       30.18R WCI   9
BOULDER MUN AP   N/A     21  19  93 N3        30.18R
CENTENNIAL     LGT SNOW  18  16  92 NE14G25   30.13R VSB 3/4 WCI   4
BROOMFIELD     LGT SNOW  21  19  93 N13       30.16R VSB 1   WCI   9
FORT COLLINS   MOCLDY    19  12  73 N22       30.18F WCI   3
LONGMONT       CLOUDY    23  17  78 N9        30.21R WCI  13
$$

COZ041-046-047-076>085-087-088-260700-
...PIKES PEAK/PALMER DIVIDE AND SOUTHERN FOOTHILLS...

CITY           SKY/WX    TMP DP  RH WIND       PRES   REMARKS
COLO. SPRINGS  CLOUDY    25  17  72 NW8       30.08S WCI  16
A. F. ACADEMY  LGT SNOW  23  19  86 N8        30.05F FOG     WCI  14
ELLICOTT       NOT AVBL
FALCON         CLOUDY    21  18  86 N8        30.06S WCI  12
FORT CARSON    LGT SNOW  26  22  87 N10       30.07S WCI  16
LIMON          LGT SNOW  20  17  88 N28G36    30.09S FOG     WCI   2
MONUMENT HILL  LGT SNOW  16  14  93 NE18G26   30.06R VSB 1   WCI  -1
TRINIDAD       LGT SNOW  25  23  92 E10       30.10S FOG     WCI  15
$$

COZ042>045-048>051-090-091-260700-
...NORTHEAST COLORADO...

CITY           SKY/WX    TMP DP  RH WIND       PRES   REMARKS
GREELEY ARPT   CLOUDY    21  10  63 NE18G25   30.18R WCI   6
AKRON          CLOUDY    18  15  88 NE20      30.15R WCI   2
BURLINGTON     CLOUDY    21  16  81 NE17G28   30.15R WCI   7
WRAY           CLOUDY    20  14  78 N16       30.22R WCI   6
STERLING       FLURRIES  21  18  86 NE14      30.21R WCI   8
HOLYOKE        NOT AVBL
FORT MORGAN    CLOUDY    22  18  86 NE16      30.17R WCI   8
$$

COZ086-089-092>099-260700-
...SOUTHEAST COLORADO...

CITY           SKY/WX    TMP DP  RH WIND       PRES   REMARKS
PUEBLO         LGT SNOW  29  27  92 NE5       30.12R FOG     WCI  24
LA JUNTA       CLOUDY    31  27  85 NE7       30.12R WCI  24
LAMAR          CLOUDY    30  22  72 NE12      30.13R WCI  20
SPRINGFIELD      N/A     28  25  88 NE12      30.09R WCI  18
$$


USA.gov is the U.S. government's official web portal to all federal, state and local government web resources and services.